Regional Weather Roundup
Issued by NWS

Home | Current Version | Previous Version | Graphics & Text | Print | Product List | Glossary On
Versions: 1 2 3 4 5 6 7 8 9 10 11 12 13 14 15 16 17 18 19 20 21 22 23 24 25 26 27 28 29 30 31 32 33 34 35 36 37 38 39 40 41 42 43 44 45 46 47 48 49 50
000
ASUS43 KFSD 290710
RWRSD

WEATHER ROUNDUP FOR SOUTH DAKOTA
NATIONAL WEATHER SERVICE SIOUX FALLS SD
200 AM CDT THU SEP 29 2016

NOTE: "FAIR" INDICATES FEW OR NO CLOUDS BELOW 12,000 FEET WITH NO
SIGNIFICANT WEATHER AND/OR OBSTRUCTIONS TO VISIBILITY.


SDZ001>005-009-010-012>017-290800-
NORTHWEST AND NORTH CENTRAL SOUTH DAKOTA

CITY           SKY/WX    TMP DP  RH WIND       PRES   REMARKS
BUFFALO          N/A     51  33  50 SE13      30.26S
FAITH            N/A     48  43  82 SE12      30.35S
MOBRIDGE       CLEAR     49  42  77 E9        30.36S
$$

SDZ012>016-024>037-041>051-057-063-072>074-290800-
SOUTHWEST AND SOUTH CENTRAL SOUTH DAKOTA

CITY           SKY/WX    TMP DP  RH WIND       PRES   REMARKS
RAPID CTY ARPT CLEAR     47  37  68 SE5       30.34F
PIERRE         CLEAR     43  38  82 E8        30.36S
CUSTER         CLEAR     43  36  76 NW5       30.42F
ELLSWORTH AFB  CLEAR     51  36  54 SE8       30.33F
PHILIP         CLEAR     44  41  89 E7        30.35F
PINE RIDGE     CLEAR     54  32  43 CALM      30.35S
WINNER         FAIR      46  42  86 S6        30.38R
$$

SDZ004>011-016>023-039-040-290800-
NORTHEAST SOUTH DAKOTA

CITY           SKY/WX    TMP DP  RH WIND       PRES   REMARKS
ABERDEEN       CLOUDY    41  38  89 CALM      30.41R
WATERTOWN      CLOUDY    40  39  97 CALM      30.40F
BROOKINGS      CLOUDY    43  42  97 NE3       30.40S
SISSETON         N/A     39  38  96 CALM      30.41R
$$

SDZ017-020-022-023-036>040-048>070-290800-
SOUTHEAST SOUTH DAKOTA

CITY           SKY/WX    TMP DP  RH WIND       PRES   REMARKS
SIOUX FALLS    CLOUDY    46  44  93 CALM      30.40S
HURON          CLOUDY    40  39  97 CALM      30.40S
CHAMBERLAIN    CLEAR     48  46  90 E3        30.38S
MITCHELL       CLOUDY    42  41  96 CALM      30.40S
YANKTON        CLOUDY    43  41  93 NW3       30.38R
$$

ABBREVIATIONS USED IN REMARKS
   TC - TEMPERATURE IN CELSIUS
  WCI - WIND CHILL INDEX
   HX - HEAT INDEX
  VSB - VISIBILITY





USA.gov is the U.S. government's official web portal to all federal, state and local government web resources and services.